Location: Holyhead Bay
(53.3667°N, 4.6667°W)
Time: 00:35:10
(UTC+00:00)

ADEOS Rocket - Pass Details

Date: 17 April 2021
Orbit: 859 x 1306 km, 98.7° (Epoch: 15 May)

Event Time Altitude Azimuth Distance (km) Brightness Sun altitude
Exits shadow 02:07:14 - 143° (SE) 3,271 5.5 -22.0°
Reaches altitude 10° 02:08:28 10° 141° (SE) 2,818 5.2 -21.9°
Maximum altitude 02:14:42 57° 65° (ENE) 1,290 3.8 -21.5°
Drops below altitude 10° 02:21:40 10° 349° (N) 3,140 6.3 -20.9°
Sets 02:24:28 0° 346° (NNW) 4,162 6.9 -20.7°
